CYGNSS FM04

operational
NORAD ID: 41885 Int'l Des: 2016-078 Owner: LARCN/SWRIB Country: US
LEOCIRCULAR

About CYGNSS FM04

Description loading...

Live Position

Loading 3D Globe...

Upcoming Passes

Altitude History

Altitude vs Time

uPlot chart will show altitude changes over time

Two-Line Element Set

1 41885U 16078B 25346.50334486 .00029314 00000-0 49906-3 0 9991
2 41885 34.9355 23.4590 0009449 208.6589 151.3614 15.50339744499907
Epoch: Dec 12, 2025 • Age: 20 hours

Current Status

Altitude 421.7 km
Velocity 7.66 km/s
Sub-Earth Point -34.11°S, 103.62°E
Launch Date Dec 15, 2016
Age 8.9 years
Type other

Technical Details

Classification Payload
Mass 29.00 kg
Dry Mass 29.00 kg
Total Mass 29.00 kg
Length 0.27 m
Diameter 0.64 m
Span 1.70 m
Shape Trunc prism+2 pan
Manufacturer SSTUS
Bus Type CYGNSS
Phase Status In Orbit
Owner/State LARCN/SWRIB/US

Large Constellations

Loading constellations...